This is the latest recevied weather packets stored in our database for station/object dl9mfl-6. If no packets are shown the sender has not sent any weather packets the latest 1 day(s).
| Time | Temp. | Humidity | Pressure | Rain* | Wind** | Luminosity | Snow |
|---|---|---|---|---|---|---|---|
| 1777985762 | 18.33° C | 63% | 1005.1 hPa | 0 mm | 3.13 m/s, 277° | - | - |
| 1777985701 | 18.33° C | 63% | 1005.1 hPa | 0 mm | 3.13 m/s, 281° | - | - |
| 1777985641 | 18.33° C | 63% | 1005.1 hPa | 0 mm | 3.13 m/s, 304° | - | - |
| 1777985581 | 18.33° C | 62% | 1005.1 hPa | 0 mm | 3.58 m/s, 269° | - | - |
| 1777985521 | 18.33° C | 63% | 1005.1 hPa | 0 mm | 3.13 m/s, 294° | - | - |
| 1777985461 | 18.33° C | 62% | 1005.1 hPa | 0 mm | 3.13 m/s, 302° | - | - |
| 1777985401 | 18.33° C | 62% | 1005.1 hPa | 0 mm | 3.13 m/s, 283° | - | - |
| 1777985341 | 18.33° C | 62% | 1005.1 hPa | 0 mm | 3.13 m/s, 309° | - | - |
| 1777985281 | 18.33° C | 62% | 1005.1 hPa | 0 mm | 3.13 m/s, 240° | - | - |
| 1777985220 | 18.33° C | 63% | 1005 hPa | 0 mm | 3.13 m/s, 310° | - | - |
| 1777985160 | 18.33° C | 62% | 1005.1 hPa | 0 mm | 3.13 m/s, 289° | - | - |
| 1777985100 | 18.33° C | 62% | 1005 hPa | 0 mm | 3.58 m/s, 294° | - | - |
| 1777985041 | 18.33° C | 61% | 1005.1 hPa | 0 mm | 3.58 m/s, 279° | - | - |
| 1777985002 | 18.33° C | 60% | 1005.2 hPa | 0 mm | 3.13 m/s, 270° | - | - |
| 1777984998 | 18.33° C | 59% | 1005.1 hPa | 0 mm | 3.13 m/s, 268° | - | - |
| 1777984861 | 18.33° C | 58% | 1005.1 hPa | 0 mm | 3.13 m/s, 264° | - | - |
| 1777984800 | 18.33° C | 58% | 1005.1 hPa | 0 mm | 2.68 m/s, 277° | - | - |
| 1777984740 | 18.33° C | 57% | 1005.1 hPa | 0 mm | 2.68 m/s, 278° | - | - |
| 1777984680 | 18.89° C | 57% | 1005.1 hPa | 0 mm | 2.68 m/s, 289° | - | - |
| 1777984620 | 18.89° C | 57% | 1005.2 hPa | 0 mm | 2.68 m/s, 280° | - | - |
| 1777984560 | 18.89° C | 58% | 1005.1 hPa | 0 mm | 2.68 m/s, 269° | - | - |
| 1777984501 | 18.89° C | 59% | 1005.1 hPa | 0 mm | 2.24 m/s, 253° | - | - |
| 1777984442 | 18.89° C | 59% | 1005.1 hPa | 0 mm | 2.24 m/s, 319° | - | - |
| 1777984381 | 18.89° C | 58% | 1005.1 hPa | 0 mm | 2.24 m/s, 277° | - | - |
| 1777984321 | 18.89° C | 60% | 1005.1 hPa | 0 mm | 2.68 m/s, 254° | - | - |
* Rain latest hour (hover to see other rain measurements)
** Current wind speed in m/s (hover to see current wind gust speed)